Weather History for Salt Lake City, UT

Change the Weather History Date:

Friday, February 14, 2014

  Actual Average Record
Temperature  
Mean Temperature 51 °F 34 °F  
Max Temperature 58 °F 43 °F 63 °F (1921)
Min Temperature 43 °F 25 °F -13 °F (1933)
Degree Days  
Heating Degree Days 14 31  
Month to date heating degree days 381 461  
Since 1 July heating degree days 3735 3855  
Cooling Degree Days 0 0  
Month to date cooling degree days 0 0  
Year to date cooling degree days 0 0  
Moisture  
Dew Point 39 °F    
Average Humidity 74    
Maximum Humidity 96    
Minimum Humidity 51    
Precipitation  
Precipitation T in 0.05 in 0.54 in (1987)
Month to date precipitation 0.86 0.59  
Year to date precipitation 2.06 1.84  
Snow  
Snow 0.00 in 0.40 in 7.20 in (1944)
Month to date snowfall 1.9 5.6  
Since 1 July snowfall 34.7 40.3  
Snow Depth 0.00 in    
Sea Level Pressure  
Sea Level Pressure 30.00 in    
Wind  
Wind Speed 8 mph (SE)    
Max Wind Speed 24 mph    
Max Gust Speed 28 mph    
Visibility 10 miles    
Events Rain    
T = Trace of Precipitation, MM = Missing Value Source: NWS Daily Summary

Daily Weather History Graph

Daily Weather History Graph

Search for Another Location

Airport:

Trip Planner

Search our weather history database for the weather conditions in past years. The results will help you decide how hot, cold, wet, or windy it might be!

Date:

Astronomy

Feb. 14, 2014 Rise Set
Actual Time 7:23 AM MST 6:01 PM MST
Civil Twilight 6:54 AM MST 6:29 PM MST
Nautical Twilight 6:22 AM MST 7:01 PM MST
Astronomical Twilight 5:51 AM MST 7:33 PM MST
Moon 6:09 PM MST (2/14) 6:51 AM MST (2/14)
Length of Visible Light 11h 34m
Length of Day
10h 38m
Full, 100% of the Moon is Illuminated
Feb 14
Full
Feb 14
Full
Feb 22
Last Quarter
Mar 1
New
Mar 8
First Quarter

Hourly Weather History & Observations

Time (MST) Temp. Windchill Dew Point Humidity Pressure Visibility Wind Dir Wind Speed Gust Speed Precip Events Conditions
12:53 AM 45.0 °F - 39.9 °F 82% 30.06 in 10.0 mi Calm Calm - N/A   Scattered Clouds
1:53 AM 44.1 °F - 39.9 °F 85% 30.08 in 10.0 mi Calm Calm - N/A   Overcast
2:53 AM 43.0 °F 39.5 °F 41.0 °F 93% 30.06 in 10.0 mi SSE 5.8 mph - N/A   Mostly Cloudy
3:53 AM 43.0 °F 38.8 °F 39.9 °F 89% 30.06 in 10.0 mi SSE 6.9 mph - N/A   Overcast
4:53 AM 43.0 °F 39.5 °F 39.9 °F 89% 30.06 in 10.0 mi SE 5.8 mph - N/A   Overcast
5:53 AM 44.1 °F 39.5 °F 39.0 °F 82% 30.04 in 10.0 mi SE 8.1 mph - N/A   Overcast
6:53 AM 45.0 °F 41.8 °F 39.0 °F 80% 30.05 in 10.0 mi SSE 5.8 mph - 0.00 in   Overcast
7:53 AM 46.0 °F 40.6 °F 39.0 °F 76% 30.03 in 10.0 mi SSE 11.5 mph - N/A   Mostly Cloudy
8:53 AM 46.9 °F - 39.0 °F 74% 30.04 in 10.0 mi South 12.7 mph - N/A   Overcast
9:53 AM 48.0 °F - 39.9 °F 74% 30.03 in 10.0 mi SSE 11.5 mph - N/A   Overcast
10:53 AM 51.1 °F - 39.9 °F 66% 30.03 in 10.0 mi SSE 13.8 mph - N/A   Overcast
11:53 AM 53.1 °F - 37.9 °F 57% 30.01 in 10.0 mi South 15.0 mph 25.3 mph N/A   Overcast
12:53 PM 55.0 °F - 37.9 °F 53% 29.99 in 10.0 mi South 17.3 mph 24.2 mph N/A   Overcast
1:53 PM 55.0 °F - 37.9 °F 53% 29.98 in 10.0 mi South 12.7 mph - N/A   Overcast
2:53 PM 55.0 °F - 37.9 °F 53% 29.98 in 10.0 mi South 19.6 mph 27.6 mph 0.00 in Rain Light Rain
3:53 PM 54.0 °F - 39.0 °F 57% 29.97 in 10.0 mi SE 6.9 mph - 0.00 in Rain Light Rain
4:53 PM 54.0 °F - 39.9 °F 59% 29.96 in 10.0 mi SSE 6.9 mph - 0.00 in   Overcast
5:53 PM 53.1 °F - 39.0 °F 59% 29.95 in 10.0 mi ESE 4.6 mph - N/A   Overcast
6:53 PM 52.0 °F - 39.0 °F 61% 29.94 in 10.0 mi ESE 9.2 mph - N/A   Mostly Cloudy
7:53 PM 52.0 °F - 39.0 °F 61% 29.94 in 10.0 mi ESE 9.2 mph - N/A   Mostly Cloudy
8:53 PM 52.0 °F - 37.9 °F 59% 29.93 in 10.0 mi ESE 6.9 mph - N/A   Mostly Cloudy
9:53 PM 54.0 °F - 37.0 °F 53% 29.92 in 10.0 mi ESE 10.4 mph - N/A   Mostly Cloudy
10:53 PM 52.0 °F - 37.0 °F 57% 29.91 in 10.0 mi SE 8.1 mph - N/A   Mostly Cloudy
11:53 PM 51.1 °F - 37.0 °F 59% 29.90 in 10.0 mi SE 4.6 mph - N/A   Mostly Cloudy